Weather History for Cambridge, MD

Change the Weather History Date:

Wednesday, July 24, 2013

  Actual Average (KESN) Record (KESN)
Temperature  
Mean Temperature 76 °F -  
Max Temperature 84 °F 88 °F 100 °F (1952)
Min Temperature 69 °F 67 °F 39 °F (2006)
Cooling Degree Days 12    
Growing Degree Days 26 (Base 50)    
Moisture  
Dew Point 67 °F    
Average Humidity 70    
Maximum Humidity 94    
Minimum Humidity 54    
Precipitation  
Precipitation 0.00 in - - ()
Sea Level Pressure  
Sea Level Pressure 29.76 in    
Wind  
Wind Speed 3 mph (North)    
Max Wind Speed 13 mph    
Max Gust Speed 17 mph    
Visibility 10 miles    
Events      
Averages and records for this station are not official NWS values.
T = Trace of Precipitation, MM = Missing Value Source: NWS Daily Summary

Daily Weather History Graph

Daily Weather History Graph

Search for Another Location

Airport:

Trip Planner

Search our weather history database for the weather conditions in past years. The results will help you decide how hot, cold, wet, or windy it might be!

Date:

Astronomy

Jul. 24, 2013 Rise Set
Actual Time 5:59 AM EDT 8:21 PM EDT
Civil Twilight 5:29 AM EDT 8:51 PM EDT
Nautical Twilight 4:51 AM EDT 9:28 PM EDT
Astronomical Twilight 4:10 AM EDT 10:09 PM EDT
Moon 9:28 PM EDT (7/24) 8:14 AM EDT (7/24)
Length of Visible Light 15h 22m
Length of Day
14h 22m
Waning Gibbous, 95% of the Moon is Illuminated
Jul 24
Waning Gibbous
Jul 29
Last Quarter
Aug 6
New
Aug 14
First Quarter
Aug 20
Full

Hourly Weather History & Observations

Time (EDT) Temp. Heat Index Dew Point Humidity Pressure Visibility Wind Dir Wind Speed Gust Speed Precip Events Conditions
12:08 AM 73.4 °F - 69.8 °F 88% 29.71 in 10.0 mi Calm Calm - N/A   Clear
12:28 AM 73.4 °F - 69.8 °F 88% 29.71 in 10.0 mi Calm Calm - N/A   Clear
12:48 AM 73.4 °F - 69.8 °F 88% 29.71 in 10.0 mi Calm Calm - N/A   Clear
1:08 AM 71.6 °F - 68.0 °F 88% 29.71 in 10.0 mi Calm Calm - N/A   Clear
1:28 AM 73.4 °F - 69.8 °F 88% 29.71 in 10.0 mi Calm Calm - N/A   Clear
1:48 AM 73.4 °F - 69.8 °F 88% 29.70 in 10.0 mi Calm Calm - N/A   Clear
2:08 AM 71.6 °F - 68.0 °F 88% 29.69 in 10.0 mi Calm Calm - N/A   Clear
2:28 AM 71.6 °F - 68.0 °F 88% 29.68 in 10.0 mi Calm Calm - N/A   Clear
2:48 AM 71.6 °F - 68.0 °F 88% 29.68 in 10.0 mi Calm Calm - N/A   Clear
3:08 AM 71.6 °F - 68.0 °F 88% 29.68 in 10.0 mi Calm Calm - N/A   Clear
3:28 AM 71.6 °F - 68.0 °F 88% 29.68 in 10.0 mi Calm Calm - N/A   Clear
3:48 AM 71.6 °F - 68.0 °F 88% 29.68 in 7.0 mi Calm Calm - N/A   Clear
4:08 AM 71.6 °F - 69.8 °F 94% 29.68 in 10.0 mi Calm Calm - N/A   Clear
4:28 AM 71.6 °F - 68.0 °F 88% 29.68 in 10.0 mi Calm Calm - N/A   Clear
4:48 AM 69.8 °F - 68.0 °F 94% 29.68 in 7.0 mi Calm Calm - N/A   Clear
5:08 AM 69.8 °F - 68.0 °F 94% 29.68 in 7.0 mi Calm Calm - N/A   Clear
5:28 AM 69.8 °F - 68.0 °F 94% 29.68 in 7.0 mi Calm Calm - N/A   Clear
5:48 AM 69.8 °F - 68.0 °F 94% 29.69 in 7.0 mi Calm Calm - N/A   Clear
6:08 AM 69.8 °F - 68.0 °F 94% 29.70 in 10.0 mi Calm Calm - N/A   Clear
6:28 AM 71.6 °F - 69.8 °F 94% 29.70 in 7.0 mi Calm Calm - N/A   Clear
6:48 AM 73.4 °F - 69.8 °F 88% 29.71 in 7.0 mi Calm Calm - N/A   Clear
7:09 AM 75.2 °F - 71.6 °F 89% 29.71 in 10.0 mi Calm Calm - N/A   Clear
7:29 AM 75.2 °F - 71.6 °F 89% 29.72 in 10.0 mi Calm Calm - N/A   Clear
7:49 AM 78.8 °F - 71.6 °F 78% 29.72 in 10.0 mi Calm Calm - N/A   Clear
8:09 AM 80.6 °F 85.4 °F 73.4 °F 79% 29.73 in 10.0 mi Calm Calm - N/A   Clear
8:29 AM 80.6 °F 82.7 °F 66.2 °F 61% 29.73 in 10.0 mi NW 8.1 mph - N/A   Clear
8:49 AM 80.6 °F 83.2 °F 68.0 °F 65% 29.74 in 10.0 mi WNW 4.6 mph - N/A   Clear
9:09 AM 80.6 °F 82.7 °F 66.2 °F 61% 29.74 in 10.0 mi NW 8.1 mph - N/A   Clear
9:29 AM 80.6 °F 82.3 °F 64.4 °F 58% 29.75 in 10.0 mi NNW 9.2 mph - N/A   Clear
9:49 AM 80.6 °F 82.3 °F 64.4 °F 58% 29.76 in 10.0 mi NNW 9.2 mph - N/A   Clear
10:09 AM 82.4 °F 84.6 °F 66.2 °F 58% 29.76 in 10.0 mi NNW 11.5 mph - N/A   Clear
10:29 AM 82.4 °F 85.4 °F 68.0 °F 62% 29.76 in 10.0 mi NNW 6.9 mph - N/A   Clear
10:49 AM 82.4 °F 85.4 °F 68.0 °F 62% 29.76 in 10.0 mi NNW 6.9 mph - N/A   Clear
11:09 AM 82.4 °F 84.6 °F 66.2 °F 58% 29.77 in 10.0 mi NNW 9.2 mph - N/A   Clear
11:29 AM 82.4 °F 85.4 °F 68.0 °F 62% 29.78 in 10.0 mi NNW 6.9 mph - N/A   Clear
11:49 AM 82.4 °F 84.6 °F 66.2 °F 58% 29.79 in 10.0 mi North 9.2 mph - N/A   Clear
12:09 PM 84.2 °F 86.6 °F 66.2 °F 55% 29.79 in 10.0 mi North 10.4 mph - N/A   Clear
12:29 PM 82.4 °F 84.6 °F 66.2 °F 58% 29.79 in 10.0 mi NNW 12.7 mph 17.3 mph N/A   Clear
12:49 PM 80.6 °F 82.3 °F 64.4 °F 58% 29.79 in 10.0 mi North 10.4 mph - N/A   Clear
1:09 PM 82.4 °F 83.9 °F 64.4 °F 54% 29.79 in 10.0 mi NNW 9.2 mph - N/A   Clear
1:29 PM 82.4 °F 83.9 °F 64.4 °F 54% 29.79 in 10.0 mi NW 8.1 mph - N/A   Clear
1:49 PM 82.4 °F 84.6 °F 66.2 °F 58% 29.79 in 10.0 mi WNW 8.1 mph - N/A   Clear
2:09 PM 82.4 °F 84.6 °F 66.2 °F 58% 29.79 in 10.0 mi NW 10.4 mph - N/A   Clear
2:29 PM 82.4 °F 83.9 °F 64.4 °F 54% 29.78 in 10.0 mi NNE 9.2 mph - N/A   Clear
2:49 PM 82.4 °F 83.9 °F 64.4 °F 54% 29.78 in 10.0 mi North 8.1 mph - N/A   Clear
3:09 PM 82.4 °F 83.9 °F 64.4 °F 54% 29.79 in 10.0 mi North 6.9 mph - N/A   Clear
3:29 PM 82.4 °F 83.9 °F 64.4 °F 54% 29.79 in 10.0 mi NNW 6.9 mph - N/A   Clear
3:50 PM 82.4 °F 83.9 °F 64.4 °F 54% 29.79 in 10.0 mi NNW 5.8 mph - N/A   Clear
4:10 PM 82.4 °F 83.9 °F 64.4 °F 54% 29.78 in 10.0 mi NNW 8.1 mph - N/A   Clear
4:30 PM 82.4 °F 83.9 °F 64.4 °F 54% 29.78 in 10.0 mi NNW 6.9 mph - N/A   Clear
4:50 PM 82.4 °F 84.6 °F 66.2 °F 58% 29.78 in 10.0 mi NNW 9.2 mph - N/A   Clear
5:10 PM 82.4 °F 84.6 °F 66.2 °F 58% 29.79 in 10.0 mi NNW 6.9 mph - N/A   Clear
5:30 PM 82.4 °F 84.6 °F 66.2 °F 58% 29.79 in 10.0 mi North 8.1 mph - N/A   Clear
5:50 PM 82.4 °F 83.9 °F 64.4 °F 54% 29.78 in 10.0 mi North 6.9 mph - N/A   Clear
6:10 PM 82.4 °F 83.9 °F 64.4 °F 54% 29.79 in 10.0 mi NNW 6.9 mph - N/A   Clear
6:30 PM 82.4 °F 83.9 °F 64.4 °F 54% 29.79 in 10.0 mi North 6.9 mph - N/A   Clear
6:50 PM 80.6 °F 82.3 °F 64.4 °F 58% 29.79 in 10.0 mi North 6.9 mph - N/A   Clear
7:10 PM 80.6 °F 82.3 °F 64.4 °F 58% 29.80 in 10.0 mi North 6.9 mph - N/A   Clear
7:30 PM 80.6 °F 83.2 °F 68.0 °F 65% 29.80 in 10.0 mi NNE 6.9 mph - N/A   Clear
7:50 PM 80.6 °F 83.2 °F 68.0 °F 65% 29.81 in 10.0 mi NE 5.8 mph - N/A   Scattered Clouds
8:10 PM 78.8 °F - 66.2 °F 65% 29.82 in 10.0 mi NNE 5.8 mph - N/A   Scattered Clouds
8:30 PM 78.8 °F - 68.0 °F 69% 29.84 in 10.0 mi North 5.8 mph - N/A   Mostly Cloudy
8:50 PM 78.8 °F - 68.0 °F 69% 29.85 in 10.0 mi NNE 5.8 mph - N/A   Overcast
9:10 PM 78.8 °F - 68.0 °F 69% 29.85 in 10.0 mi NNE 8.1 mph - N/A   Mostly Cloudy
9:30 PM 78.8 °F - 66.2 °F 65% 29.86 in 10.0 mi NE 5.8 mph - N/A   Overcast
9:50 PM 78.8 °F - 64.4 °F 61% 29.87 in 10.0 mi NNE 9.2 mph - N/A   Mostly Cloudy
10:10 PM 78.8 °F - 64.4 °F 61% 29.87 in 10.0 mi NNE 4.6 mph - N/A   Mostly Cloudy
10:30 PM 77.0 °F - 66.2 °F 69% 29.87 in 10.0 mi North 6.9 mph - N/A   Scattered Clouds
10:50 PM 75.2 °F - 64.4 °F 69% 29.88 in 10.0 mi North 5.8 mph - N/A   Clear
11:10 PM 75.2 °F - 62.6 °F 65% 29.88 in 10.0 mi North 5.8 mph - N/A   Clear
11:30 PM 75.2 °F - 62.6 °F 65% 29.88 in 10.0 mi North 8.1 mph - N/A   Clear
11:50 PM 75.2 °F - 62.6 °F 65% 29.88 in 10.0 mi North 4.6 mph - N/A   Clear